Location: Albuquerque Trailhead
(34.7934°N, 106.3736°W)
Time: 02:21:23
(UTC+00:00)

Cosmos 2221 - Pass Details

Date: 20 June 2021
Orbit: 591 x 616 km, 82.5° (Epoch: 27 July)

Event Time Altitude Azimuth Distance (km) Brightness Sun altitude
Rises 08:27:24 0° 353° (N) 2,848 6.9 -28.7°
Reaches altitude 10° 08:29:37 10° 353° (N) 1,938 5.8 -28.6°
Enters shadow 08:32:27 41° 353° (N) 867 3.6 -28.4°
